Home   Weather   Kalamata   Past weeks

Flag for Greece Past Weather in Kalamata, Greece — Yesterday and Last 2 Weeks

64 °F

Mostly cloudy.

Feels Like: 64 °F
Forecast: 64 / 71 °F
Wind: No wind

Location: Kalamata Airport

Current Time: Oct 22, 2016 at 12:56:48 AM

Latest Report: Oct 21, 2016 at 11:50 PM

Visibility: N/A

Pressure: 30.04 "Hg

Humidity: 88%

Dew Point: 61 °F

Location of KalamataLocation

Past Weather in Kalamata — Graph


Kalamata Temperature Yesterday

Maximum temperature yesterday: 70 °F (at 3:50 PM)
Minimum temperature yesterday: 61 °F (at 2:50 AM)
Average temperature yesterday: 65 °F

High & Low Weather Summary for the Past Weeks

High81 °F (Oct 8, 1:50 PM)94% (Oct 8, 2:20 AM)30.15 "Hg (Oct 8, 2:20 AM)
Low48 °F (Oct 14, 7:50 AM)24% (Oct 7, 12:50 PM)29.77 "Hg (Oct 11, 5:20 PM)
Average67 °F70%30.03 "Hg
* Reported Oct 6 11:20 PM — Oct 21 11:20 PM, Kalamata, Weather by CustomWeather, © 2016

Note: Actual official high and low records may vary slightly from our data, if they occured in-between our weather recording intervals... More about our weather records


Kalamata Weather History for the Previous 24 Hours

Scroll right to see more
Time TempWeatherWind HumidityBarometerVisibility
11:20 PM
Fri, Oct 21
64 °FMostly cloudy.No wind94%30.04 "HgN/A
10:50 PM64 °FMostly cloudy.No wind94%30.04 "HgN/A
10:20 PM64 °FMostly cloudy.No wind94%30.04 "HgN/A
9:50 PM64 °FMostly cloudy.No wind94%30.04 "HgN/A
9:20 PM64 °FMostly cloudy.No wind94%30.04 "HgN/A
8:50 PM64 °FPartly cloudy.No wind94%30.04 "HgN/A
8:20 PM64 °FPartly cloudy.No wind94%30.01 "HgN/A
7:50 PM66 °FLight rain. Partly cloudy.No wind88%30.01 "Hg4 mi
7:20 PM66 °FLight rain. Partly cloudy.6 mph88%30.01 "Hg4 mi
6:50 PM66 °FLight rain. Partly cloudy.No wind83%29.98 "Hg4 mi
6:20 PM66 °FRain. Broken clouds.6 mph83%30.01 "Hg4 mi
5:50 PM68 °FRain. Mostly cloudy.10 mph78%30.01 "Hg4 mi
5:20 PM68 °FLight rain. Mostly cloudy.10 mph78%30.01 "HgN/A
4:50 PM68 °FMostly cloudy.8 mph78%30.01 "HgN/A
4:20 PM68 °FMostly cloudy.7 mph78%30.01 "HgN/A
3:50 PM70 °FBroken clouds.8 mph73%30.01 "HgN/A
3:20 PM68 °FBroken clouds.6 mph83%30.01 "HgN/A
2:50 PM66 °FLight rain. Cloudy.No wind88%30.01 "Hg4 mi
2:20 PM66 °FLight rain. Cloudy.No wind88%30.04 "Hg4 mi
1:50 PM66 °FRain. Cloudy.No wind88%30.04 "Hg4 mi
1:20 PM64 °FRain. Cloudy.5 mph88%30.04 "Hg3 mi
12:50 PM64 °FLight rain. Cloudy.9 mph88%30.01 "Hg4 mi
12:20 PM64 °FThunderstorms. Broken clouds.8 mph88%30.04 "Hg3 mi
11:50 AM64 °FRain. Cloudy.No wind88%30.04 "Hg3 mi
11:20 AM66 °FLight rain. Broken clouds.No wind83%30.04 "Hg5 mi
10:50 AM66 °FBroken clouds.No wind88%30.01 "HgN/A
10:20 AM66 °FBroken clouds.No wind83%30.01 "HgN/A
9:50 AM66 °FLight rain. Broken clouds.No wind83%30.01 "Hg5 mi
9:20 AM64 °FBroken clouds.No wind83%30.04 "HgN/A
8:50 AM63 °FBroken clouds.No wind88%30.01 "HgN/A
8:20 AM63 °FScattered clouds.No wind88%30.01 "HgN/A
7:50 AM61 °FScattered clouds.No wind94%30.01 "HgN/A
7:20 AM63 °FPassing clouds.No wind88%30.01 "HgN/A
6:50 AM63 °FPartly cloudy.No wind88%30.01 "HgN/A
6:20 AM63 °FPartly cloudy.No wind88%30.01 "HgN/A
5:50 AM63 °FPartly cloudy.No wind88%30.01 "HgN/A
4:50 AM63 °FPartly cloudy.No wind88%30.04 "HgN/A
3:50 AM63 °FPartly cloudy.No wind88%30.04 "HgN/A
2:50 AM61 °FPartly cloudy.No wind94%30.04 "HgN/A
1:50 AM64 °FPartly cloudy.No wind83%30.04 "HgN/A
Weather by CustomWeather, © 2016

See weather overviewHow to use our weather pages